Year,Month,Day,Hour,Minute,Value (Times are PST for temperature in C)
2015,05,19,00,00,12.50
2015,05,19,00,01,12.40
2015,05,19,00,02,12.40
2015,05,19,00,03,12.40
2015,05,19,00,04,12.30
2015,05,19,00,05,12.30
2015,05,19,00,06,12.30
2015,05,19,00,07,12.30
2015,05,19,00,08,12.30
2015,05,19,00,09,12.30
2015,05,19,00,10,12.20
2015,05,19,00,11,12.20
2015,05,19,00,12,12.20
2015,05,19,00,13,12.20
2015,05,19,00,14,12.20
2015,05,19,00,15,12.20
2015,05,19,00,16,12.20
2015,05,19,00,17,12.20
2015,05,19,00,18,12.20
2015,05,19,00,19,12.20
2015,05,19,00,20,12.20
2015,05,19,00,21,12.10
2015,05,19,00,22,12.10
2015,05,19,00,23,12.10
2015,05,19,00,24,12.10
2015,05,19,00,25,12.00
2015,05,19,00,26,12.00
2015,05,19,00,27,12.00
2015,05,19,00,28,12.00
2015,05,19,00,29,12.00
2015,05,19,00,30,12.00
2015,05,19,00,31,12.00
2015,05,19,00,32,12.00
2015,05,19,00,33,12.00
2015,05,19,00,34,11.90
2015,05,19,00,35,11.90
2015,05,19,00,36,11.90
2015,05,19,00,37,11.90
2015,05,19,00,38,11.90
2015,05,19,00,39,11.90
2015,05,19,00,40,11.90
2015,05,19,00,41,11.90
2015,05,19,00,42,11.90
2015,05,19,00,43,11.90
2015,05,19,00,44,11.90
2015,05,19,00,45,11.90
2015,05,19,00,46,11.90
2015,05,19,00,47,11.90
2015,05,19,00,48,11.90
2015,05,19,00,49,11.80
2015,05,19,00,50,11.80
2015,05,19,00,51,11.80
2015,05,19,00,52,11.80
2015,05,19,00,53,11.80
2015,05,19,00,54,11.80
2015,05,19,00,55,11.80
2015,05,19,00,56,11.80
2015,05,19,00,57,11.80
2015,05,19,00,58,11.80
2015,05,19,00,59,11.80
2015,05,19,01,00,11.80
2015,05,19,01,01,11.80
2015,05,19,01,02,11.80
2015,05,19,01,03,11.80
2015,05,19,01,04,11.80
2015,05,19,01,05,11.80
2015,05,19,01,06,11.80
2015,05,19,01,07,11.80
2015,05,19,01,08,11.80
2015,05,19,01,09,11.70
2015,05,19,01,10,11.70
2015,05,19,01,11,11.70
2015,05,19,01,12,11.70
2015,05,19,01,13,11.70
2015,05,19,01,14,11.70
2015,05,19,01,15,11.70
2015,05,19,01,16,11.70
2015,05,19,01,17,11.70
2015,05,19,01,18,11.80
2015,05,19,01,19,11.80
2015,05,19,01,20,11.80
2015,05,19,01,21,11.80
2015,05,19,01,22,11.80
2015,05,19,01,23,11.80
2015,05,19,01,24,11.80
2015,05,19,01,25,11.80
2015,05,19,01,26,11.80
2015,05,19,01,27,11.80
2015,05,19,01,28,11.80
2015,05,19,01,29,11.90
2015,05,19,01,30,11.90
2015,05,19,01,31,12.00
2015,05,19,01,32,12.00
2015,05,19,01,33,12.00
2015,05,19,01,34,12.10
2015,05,19,01,35,12.10
2015,05,19,01,36,12.20
2015,05,19,01,37,12.20
2015,05,19,01,38,12.30
2015,05,19,01,39,12.30
2015,05,19,01,40,12.30
2015,05,19,01,41,12.30
2015,05,19,01,42,12.30
2015,05,19,01,43,12.40
2015,05,19,01,44,12.40
2015,05,19,01,45,12.40
2015,05,19,01,46,12.40
2015,05,19,01,47,12.40
2015,05,19,01,48,12.50
2015,05,19,01,49,12.50
2015,05,19,01,50,12.60
2015,05,19,01,51,12.60
2015,05,19,01,52,12.70
2015,05,19,01,53,12.80
2015,05,19,01,54,12.80
2015,05,19,01,55,12.80
2015,05,19,01,56,12.80
2015,05,19,01,57,12.70
2015,05,19,01,58,12.70
2015,05,19,01,59,12.60
2015,05,19,02,00,12.60
2015,05,19,02,01,12.50
2015,05,19,02,02,12.50
2015,05,19,02,03,12.50
2015,05,19,02,04,12.50
2015,05,19,02,05,12.40
2015,05,19,02,06,12.40
2015,05,19,02,07,12.40
2015,05,19,02,08,12.30
2015,05,19,02,09,12.30
2015,05,19,02,10,12.30
2015,05,19,02,11,12.30
2015,05,19,02,12,12.20
2015,05,19,02,13,12.20
2015,05,19,02,14,12.10
2015,05,19,02,15,12.10
2015,05,19,02,16,12.00
2015,05,19,02,17,12.00
2015,05,19,02,18,12.00
2015,05,19,02,19,11.90
2015,05,19,02,20,11.90
2015,05,19,02,21,11.90
2015,05,19,02,22,11.80
2015,05,19,02,23,11.80
2015,05,19,02,24,11.80
2015,05,19,02,25,11.80
2015,05,19,02,26,11.80
2015,05,19,02,27,11.80
2015,05,19,02,28,11.80
2015,05,19,02,29,11.70
2015,05,19,02,30,11.70
2015,05,19,02,31,11.70
2015,05,19,02,32,11.70
2015,05,19,02,33,11.70
2015,05,19,02,34,11.70
2015,05,19,02,35,11.60
2015,05,19,02,36,11.60
2015,05,19,02,37,11.60
2015,05,19,02,38,11.60
2015,05,19,02,39,11.60
2015,05,19,02,40,11.60
2015,05,19,02,41,11.60
2015,05,19,02,42,11.60
2015,05,19,02,43,11.60
2015,05,19,02,44,11.60
2015,05,19,02,45,11.60
2015,05,19,02,46,11.60
2015,05,19,02,47,11.60
2015,05,19,02,48,11.60
2015,05,19,02,49,11.60
2015,05,19,02,50,11.60
2015,05,19,02,51,11.60
2015,05,19,02,52,11.60
2015,05,19,02,53,11.60
2015,05,19,02,54,11.60
2015,05,19,02,55,11.60
2015,05,19,02,56,11.60
2015,05,19,02,57,11.60
2015,05,19,02,58,11.50
2015,05,19,02,59,11.40
2015,05,19,03,00,11.40
2015,05,19,03,01,11.40
2015,05,19,03,02,11.40
2015,05,19,03,03,11.40
2015,05,19,03,04,11.40
2015,05,19,03,05,11.40
2015,05,19,03,06,11.40
2015,05,19,03,07,11.40
2015,05,19,03,08,11.50
2015,05,19,03,09,11.60
2015,05,19,03,10,11.60
2015,05,19,03,11,11.60
2015,05,19,03,12,11.40
2015,05,19,03,13,11.40
2015,05,19,03,14,11.40
2015,05,19,03,15,11.40
2015,05,19,03,16,11.40
2015,05,19,03,17,11.40
2015,05,19,03,18,11.30
2015,05,19,03,19,11.30
2015,05,19,03,20,11.30
2015,05,19,03,21,11.30
2015,05,19,03,22,11.30
2015,05,19,03,23,11.30
2015,05,19,03,24,11.30
2015,05,19,03,25,11.30
2015,05,19,03,26,11.30
2015,05,19,03,27,11.30
2015,05,19,03,28,11.30
2015,05,19,03,29,11.30
2015,05,19,03,30,11.30
2015,05,19,03,31,11.30
2015,05,19,03,32,11.30
2015,05,19,03,33,11.30
2015,05,19,03,34,11.30
2015,05,19,03,35,11.30
2015,05,19,03,36,11.30
2015,05,19,03,37,11.30
2015,05,19,03,38,11.30
2015,05,19,03,39,11.30
2015,05,19,03,40,11.30
2015,05,19,03,41,11.30
2015,05,19,03,42,11.30
2015,05,19,03,43,11.30
2015,05,19,03,44,11.30
2015,05,19,03,45,11.30
2015,05,19,03,46,11.30
2015,05,19,03,47,11.30
2015,05,19,03,48,11.30
2015,05,19,03,49,11.30
2015,05,19,03,50,11.30
2015,05,19,03,51,11.30
2015,05,19,03,52,11.30
2015,05,19,03,53,11.30
2015,05,19,03,54,11.30
2015,05,19,03,55,11.30
2015,05,19,03,56,11.30
2015,05,19,03,57,11.20
2015,05,19,03,58,11.20
2015,05,19,03,59,11.20
2015,05,19,04,00,11.20
2015,05,19,04,01,11.20
2015,05,19,04,02,11.20
2015,05,19,04,03,11.20
2015,05,19,04,04,11.20
2015,05,19,04,05,11.20
2015,05,19,04,06,11.20
2015,05,19,04,07,11.20
2015,05,19,04,08,11.20
2015,05,19,04,09,11.20
2015,05,19,04,10,11.20
2015,05,19,04,11,11.20
2015,05,19,04,12,11.20
2015,05,19,04,13,11.20
2015,05,19,04,14,11.10
2015,05,19,04,15,11.10
2015,05,19,04,16,11.10
2015,05,19,04,17,11.10
2015,05,19,04,18,11.10
2015,05,19,04,19,11.00
2015,05,19,04,20,10.90
2015,05,19,04,21,10.90
2015,05,19,04,22,10.90
2015,05,19,04,23,10.90
2015,05,19,04,24,10.90
2015,05,19,04,25,10.90
2015,05,19,04,26,10.90
2015,05,19,04,27,10.90
2015,05,19,04,28,10.90
2015,05,19,04,29,10.90
2015,05,19,04,30,10.90
2015,05,19,04,31,10.90
2015,05,19,04,32,10.90
2015,05,19,04,33,10.90
2015,05,19,04,34,11.00
2015,05,19,04,35,11.10
2015,05,19,04,36,11.10
2015,05,19,04,37,11.10
2015,05,19,04,38,11.10
2015,05,19,04,39,11.20
2015,05,19,04,40,11.30
2015,05,19,04,41,11.40
2015,05,19,04,42,11.40
2015,05,19,04,43,11.50
2015,05,19,04,44,11.60
2015,05,19,04,45,11.60
2015,05,19,04,46,11.70
2015,05,19,04,47,11.70
2015,05,19,04,48,11.80
2015,05,19,04,49,11.90
2015,05,19,04,50,11.90
2015,05,19,04,51,12.00
2015,05,19,04,52,12.00
2015,05,19,04,53,12.10
2015,05,19,04,54,12.20
2015,05,19,04,55,12.20
2015,05,19,04,56,12.30
2015,05,19,04,57,12.30
2015,05,19,04,58,12.30
2015,05,19,04,59,12.30
2015,05,19,05,00,12.40
2015,05,19,05,01,12.50
2015,05,19,05,02,12.50
2015,05,19,05,03,12.60
2015,05,19,05,04,12.70
2015,05,19,05,05,12.70
2015,05,19,05,06,12.80
2015,05,19,05,07,12.80
2015,05,19,05,08,12.80
2015,05,19,05,09,12.80
2015,05,19,05,10,12.80
2015,05,19,05,11,12.80
2015,05,19,05,12,12.90
2015,05,19,05,13,12.90
2015,05,19,05,14,12.90
2015,05,19,05,15,12.90
2015,05,19,05,16,13.00
2015,05,19,05,17,13.00
2015,05,19,05,18,13.00
2015,05,19,05,19,13.00
2015,05,19,05,20,13.10
2015,05,19,05,21,13.10
2015,05,19,05,22,13.10
2015,05,19,05,23,13.10
2015,05,19,05,24,13.20
2015,05,19,05,25,13.20
2015,05,19,05,26,13.20
2015,05,19,05,27,13.30
2015,05,19,05,28,13.30
2015,05,19,05,29,13.30
2015,05,19,05,30,13.30
2015,05,19,05,31,13.30
2015,05,19,05,32,13.30
2015,05,19,05,33,13.30
2015,05,19,05,34,13.30
2015,05,19,05,35,13.30
2015,05,19,05,36,13.20
2015,05,19,05,37,13.20
2015,05,19,05,38,13.20
2015,05,19,05,39,13.20
2015,05,19,05,40,13.20
2015,05,19,05,41,13.20
2015,05,19,05,42,13.20
2015,05,19,05,43,13.20
2015,05,19,05,44,13.20
2015,05,19,05,45,13.20
2015,05,19,05,46,13.20
2015,05,19,05,47,13.20
2015,05,19,05,48,13.20
2015,05,19,05,49,13.20
2015,05,19,05,50,13.20
2015,05,19,05,51,13.10
2015,05,19,05,52,13.10
2015,05,19,05,53,13.00
2015,05,19,05,54,12.80
2015,05,19,05,55,12.80
2015,05,19,05,56,12.70
2015,05,19,05,57,12.70
2015,05,19,05,58,12.60
2015,05,19,05,59,12.60
2015,05,19,06,00,12.50
2015,05,19,06,01,12.50
2015,05,19,06,02,12.50
2015,05,19,06,03,12.50
2015,05,19,06,04,12.50
2015,05,19,06,05,12.50
2015,05,19,06,06,12.50
2015,05,19,06,07,12.50
2015,05,19,06,08,12.50
2015,05,19,06,09,12.50
2015,05,19,06,10,12.50
2015,05,19,06,11,12.50
2015,05,19,06,12,12.60
2015,05,19,06,13,12.60
2015,05,19,06,14,12.60
2015,05,19,06,15,12.60
2015,05,19,06,16,12.60
2015,05,19,06,17,12.70
2015,05,19,06,18,12.70
2015,05,19,06,19,12.70
2015,05,19,06,20,12.80
2015,05,19,06,21,12.80
2015,05,19,06,22,12.80
2015,05,19,06,23,12.80
2015,05,19,06,24,12.80
2015,05,19,06,25,12.80
2015,05,19,06,26,12.80
2015,05,19,06,27,12.80
2015,05,19,06,28,12.80
2015,05,19,06,29,12.90
2015,05,19,06,30,12.90
2015,05,19,06,31,13.00
2015,05,19,06,32,13.00
2015,05,19,06,33,13.10
2015,05,19,06,34,13.20
2015,05,19,06,35,13.20
2015,05,19,06,36,13.30
2015,05,19,06,37,13.30
2015,05,19,06,38,13.40
2015,05,19,06,39,13.40
2015,05,19,06,40,13.50
2015,05,19,06,41,13.50
2015,05,19,06,42,13.60
2015,05,19,06,43,13.60
2015,05,19,06,44,13.60
2015,05,19,06,45,13.70
2015,05,19,06,46,13.70
2015,05,19,06,47,13.70
2015,05,19,06,48,13.80
2015,05,19,06,49,13.80
2015,05,19,06,50,13.80
2015,05,19,06,51,13.80
2015,05,19,06,52,13.90
2015,05,19,06,53,13.90
2015,05,19,06,54,13.90
2015,05,19,06,55,14.00
2015,05,19,06,56,14.10
2015,05,19,06,57,14.20
2015,05,19,06,58,14.20
2015,05,19,06,59,14.30
2015,05,19,07,00,14.30
2015,05,19,07,01,14.40
2015,05,19,07,02,14.50
2015,05,19,07,03,14.50
2015,05,19,07,04,14.60
2015,05,19,07,05,14.70
2015,05,19,07,06,14.80
2015,05,19,07,07,14.80
2015,05,19,07,08,14.80
2015,05,19,07,09,14.90
2015,05,19,07,10,15.00
2015,05,19,07,11,15.00
2015,05,19,07,12,15.10
2015,05,19,07,13,15.20
2015,05,19,07,14,15.20
2015,05,19,07,15,15.30
2015,05,19,07,16,15.40
2015,05,19,07,17,15.40
2015,05,19,07,18,15.50
2015,05,19,07,19,15.50
2015,05,19,07,20,15.60
2015,05,19,07,21,15.70
2015,05,19,07,22,15.70
2015,05,19,07,23,15.80
2015,05,19,07,24,15.80
2015,05,19,07,25,15.80
2015,05,19,07,26,15.80
2015,05,19,07,27,15.80
2015,05,19,07,28,15.80
2015,05,19,07,29,15.80
2015,05,19,07,30,15.90
2015,05,19,07,31,15.90
2015,05,19,07,32,16.00
2015,05,19,07,33,16.10
2015,05,19,07,34,16.10
2015,05,19,07,35,16.20
2015,05,19,07,36,16.30
2015,05,19,07,37,16.30
2015,05,19,07,38,16.20
2015,05,19,07,39,16.20
2015,05,19,07,40,16.10
2015,05,19,07,41,16.10
2015,05,19,07,42,16.00
2015,05,19,07,43,15.90
2015,05,19,07,44,15.80
2015,05,19,07,45,15.80
2015,05,19,07,46,15.80
2015,05,19,07,47,15.80
2015,05,19,07,48,15.80
2015,05,19,07,49,15.80
2015,05,19,07,50,15.70
2015,05,19,07,51,15.70
2015,05,19,07,52,15.70
2015,05,19,07,53,15.70
2015,05,19,07,54,15.70
2015,05,19,07,55,15.70
2015,05,19,07,56,15.70
2015,05,19,07,57,15.60
2015,05,19,07,58,15.60
2015,05,19,07,59,15.50
2015,05,19,08,00,15.50
2015,05,19,08,01,15.60
2015,05,19,08,02,15.60
2015,05,19,08,03,15.70
2015,05,19,08,04,15.80
2015,05,19,08,05,15.80
2015,05,19,08,06,15.80
2015,05,19,08,07,15.80
2015,05,19,08,08,15.80
2015,05,19,08,09,15.90
2015,05,19,08,10,16.00
2015,05,19,08,11,16.10
2015,05,19,08,12,16.20
2015,05,19,08,13,16.20
2015,05,19,08,14,16.30
2015,05,19,08,15,16.40
2015,05,19,08,16,16.50
2015,05,19,08,17,16.60
2015,05,19,08,18,16.70
2015,05,19,08,19,16.70
2015,05,19,08,20,16.70
2015,05,19,08,21,16.70
2015,05,19,08,22,16.70
2015,05,19,08,23,16.70
2015,05,19,08,24,16.70
2015,05,19,08,25,16.70
2015,05,19,08,26,16.70
2015,05,19,08,27,16.70
2015,05,19,08,28,16.70
2015,05,19,08,29,16.70
2015,05,19,08,30,16.70
2015,05,19,08,31,16.70
2015,05,19,08,32,16.70
2015,05,19,08,33,16.70
2015,05,19,08,34,16.70
2015,05,19,08,35,16.70
2015,05,19,08,36,16.70
2015,05,19,08,37,16.70
2015,05,19,08,38,16.80
2015,05,19,08,39,16.90
2015,05,19,08,40,17.00
2015,05,19,08,41,17.10
2015,05,19,08,42,17.20
2015,05,19,08,43,17.10
2015,05,19,08,44,16.90
2015,05,19,08,45,16.90
2015,05,19,08,46,16.70
2015,05,19,08,47,16.60
2015,05,19,08,48,16.50
2015,05,19,08,49,16.30
2015,05,19,08,50,16.20
2015,05,19,08,51,16.10
2015,05,19,08,52,15.90
2015,05,19,08,53,15.90
2015,05,19,08,54,15.90
2015,05,19,08,55,15.90
2015,05,19,08,56,15.90
2015,05,19,08,57,15.90
2015,05,19,08,58,15.90
2015,05,19,08,59,16.00
2015,05,19,09,00,16.10
2015,05,19,09,01,16.10
2015,05,19,09,02,16.10
2015,05,19,09,03,16.20
2015,05,19,09,04,16.30
2015,05,19,09,05,16.30
2015,05,19,09,06,16.30
2015,05,19,09,07,16.30
2015,05,19,09,08,16.30
2015,05,19,09,09,16.30
2015,05,19,09,10,16.40
2015,05,19,09,11,16.50
2015,05,19,09,12,16.60
2015,05,19,09,13,16.60
2015,05,19,09,14,16.60
2015,05,19,09,15,16.60
2015,05,19,09,16,16.70
2015,05,19,09,17,16.70
2015,05,19,09,18,16.70
2015,05,19,09,19,16.70
2015,05,19,09,20,16.70
2015,05,19,09,21,16.70
2015,05,19,09,22,16.70
2015,05,19,09,23,16.60
2015,05,19,09,24,16.40
2015,05,19,09,25,16.30
2015,05,19,09,26,16.20
2015,05,19,09,27,16.00
2015,05,19,09,28,15.90
2015,05,19,09,29,15.80
2015,05,19,09,30,15.80
2015,05,19,09,31,15.80
2015,05,19,09,32,15.70
2015,05,19,09,33,15.80
2015,05,19,09,34,15.70
2015,05,19,09,35,15.60
2015,05,19,09,36,15.60
2015,05,19,09,37,15.50
2015,05,19,09,38,15.40
2015,05,19,09,39,15.30
2015,05,19,09,40,15.30
2015,05,19,09,41,15.20
2015,05,19,09,42,15.20
2015,05,19,09,43,15.20
2015,05,19,09,44,15.30
2015,05,19,09,45,15.30
2015,05,19,09,46,15.40
2015,05,19,09,47,15.50
2015,05,19,09,48,15.60
2015,05,19,09,49,15.70
2015,05,19,09,50,15.80
2015,05,19,09,51,15.90
2015,05,19,09,52,16.00
2015,05,19,09,53,16.10
2015,05,19,09,54,16.20
2015,05,19,09,55,16.20
2015,05,19,09,56,16.20
2015,05,19,09,57,16.20
2015,05,19,09,58,16.10
2015,05,19,09,59,16.00
2015,05,19,10,00,15.80
2015,05,19,10,01,15.80
2015,05,19,10,02,15.80
2015,05,19,10,03,15.80
2015,05,19,10,04,15.80
2015,05,19,10,05,15.80
2015,05,19,10,06,15.70
2015,05,19,10,07,15.70
2015,05,19,10,08,15.70
2015,05,19,10,09,15.80
2015,05,19,10,10,15.80
2015,05,19,10,11,15.80
2015,05,19,10,12,15.80
2015,05,19,10,13,15.90
2015,05,19,10,14,15.90
2015,05,19,10,15,15.90
2015,05,19,10,16,16.00
2015,05,19,10,17,16.10
2015,05,19,10,18,15.90
2015,05,19,10,19,16.00
2015,05,19,10,20,16.10
2015,05,19,10,21,16.00
2015,05,19,10,22,15.90
2015,05,19,10,23,15.90
2015,05,19,10,24,15.90
2015,05,19,10,25,15.90
2015,05,19,10,26,15.80
2015,05,19,10,27,15.80
2015,05,19,10,28,15.80
2015,05,19,10,29,15.80
2015,05,19,10,30,15.90
2015,05,19,10,31,15.90
2015,05,19,10,32,16.00
2015,05,19,10,33,16.10
2015,05,19,10,34,16.10
2015,05,19,10,35,16.10
2015,05,19,10,36,16.00
2015,05,19,10,37,15.90
2015,05,19,10,38,15.80
2015,05,19,10,39,15.80
2015,05,19,10,40,15.80
2015,05,19,10,41,15.70
2015,05,19,10,42,15.70
2015,05,19,10,43,15.60
2015,05,19,10,44,15.60
2015,05,19,10,45,15.60
2015,05,19,10,46,15.60
2015,05,19,10,47,15.60
2015,05,19,10,48,15.70
2015,05,19,10,49,15.80
2015,05,19,10,50,15.80
2015,05,19,10,51,15.90
2015,05,19,10,52,15.90
2015,05,19,10,53,16.00
2015,05,19,10,54,16.10
2015,05,19,10,55,16.10
2015,05,19,10,56,16.10
2015,05,19,10,57,16.10
2015,05,19,10,58,16.20
2015,05,19,10,59,16.20
2015,05,19,11,00,16.20
2015,05,19,11,01,16.20
2015,05,19,11,02,16.20
2015,05,19,11,03,16.00
2015,05,19,11,04,15.90
2015,05,19,11,05,15.90
2015,05,19,11,06,15.80
2015,05,19,11,07,15.80
2015,05,19,11,08,15.80
2015,05,19,11,09,15.80
2015,05,19,11,10,15.80
2015,05,19,11,11,15.90
2015,05,19,11,12,16.00
2015,05,19,11,13,16.20
2015,05,19,11,14,16.30
2015,05,19,11,15,16.40
2015,05,19,11,16,16.50
2015,05,19,11,17,16.50
2015,05,19,11,18,16.40
2015,05,19,11,19,16.50
2015,05,19,11,20,16.60
2015,05,19,11,21,16.70
2015,05,19,11,22,16.80
2015,05,19,11,23,16.90
2015,05,19,11,24,17.10
2015,05,19,11,25,17.20
2015,05,19,11,26,17.40
2015,05,19,11,27,17.60
2015,05,19,11,28,17.80
2015,05,19,11,29,18.00
2015,05,19,11,30,18.10
2015,05,19,11,31,18.20
2015,05,19,11,32,18.30
2015,05,19,11,33,18.40
2015,05,19,11,34,18.50
2015,05,19,11,35,18.50
2015,05,19,11,36,18.60
2015,05,19,11,37,18.60
2015,05,19,11,38,18.60
2015,05,19,11,39,18.60
2015,05,19,11,40,18.50
2015,05,19,11,41,18.50
2015,05,19,11,42,18.40
2015,05,19,11,43,18.20
2015,05,19,11,44,18.10
2015,05,19,11,45,18.00
2015,05,19,11,46,17.90
2015,05,19,11,47,17.90
2015,05,19,11,48,17.90
2015,05,19,11,49,17.90
2015,05,19,11,50,17.90
2015,05,19,11,51,18.00
2015,05,19,11,52,17.90
2015,05,19,11,53,17.90
2015,05,19,11,54,17.80
2015,05,19,11,55,17.70
2015,05,19,11,56,17.60
2015,05,19,11,57,17.50
2015,05,19,11,58,17.60
2015,05,19,11,59,17.70
2015,05,19,12,00,17.70
2015,05,19,12,01,17.70
2015,05,19,12,02,17.70
2015,05,19,12,03,17.70
2015,05,19,12,04,17.70
2015,05,19,12,05,17.70
2015,05,19,12,06,17.80
2015,05,19,12,07,17.70
2015,05,19,12,08,17.50
2015,05,19,12,09,17.30
2015,05,19,12,10,17.10
2015,05,19,12,11,17.00
2015,05,19,12,12,16.80
2015,05,19,12,13,16.70
2015,05,19,12,14,16.70
2015,05,19,12,15,16.70
2015,05,19,12,16,16.70
2015,05,19,12,17,16.60
2015,05,19,12,18,16.70
2015,05,19,12,19,16.70
2015,05,19,12,20,16.70
2015,05,19,12,21,16.70
2015,05,19,12,22,16.70
2015,05,19,12,23,16.70
2015,05,19,12,24,16.70
2015,05,19,12,25,16.60
2015,05,19,12,26,16.60
2015,05,19,12,27,16.60
2015,05,19,12,28,16.50
2015,05,19,12,29,16.40
2015,05,19,12,30,16.40
2015,05,19,12,31,16.40
2015,05,19,12,32,16.50
2015,05,19,12,33,16.60
2015,05,19,12,34,16.70
2015,05,19,12,35,16.80
2015,05,19,12,36,17.00
2015,05,19,12,37,17.10
2015,05,19,12,38,17.30
2015,05,19,12,39,17.30
2015,05,19,12,40,17.40
2015,05,19,12,41,17.40
2015,05,19,12,42,17.30
2015,05,19,12,43,17.10
2015,05,19,12,44,17.00
2015,05,19,12,45,16.90
2015,05,19,12,46,16.80
2015,05,19,12,47,16.80
2015,05,19,12,48,16.80
2015,05,19,12,49,16.80
2015,05,19,12,50,16.70
2015,05,19,12,51,16.80
2015,05,19,12,52,16.90
2015,05,19,12,53,16.90
2015,05,19,12,54,17.00
2015,05,19,12,55,17.10
2015,05,19,12,56,17.20
2015,05,19,12,57,17.30
2015,05,19,12,58,17.20
2015,05,19,12,59,17.20
2015,05,19,13,00,17.10
2015,05,19,13,01,17.10
2015,05,19,13,02,17.10
2015,05,19,13,03,17.20
2015,05,19,13,04,17.30
2015,05,19,13,05,17.30
2015,05,19,13,06,17.30
2015,05,19,13,07,17.20
2015,05,19,13,08,17.20
2015,05,19,13,09,17.10
2015,05,19,13,10,17.10
2015,05,19,13,11,17.10
2015,05,19,13,12,17.00
2015,05,19,13,13,16.90
2015,05,19,13,14,16.90
2015,05,19,13,15,16.80
2015,05,19,13,16,16.80
2015,05,19,13,17,16.70
2015,05,19,13,18,16.80
2015,05,19,13,19,16.80
2015,05,19,13,20,16.90
2015,05,19,13,21,17.00
2015,05,19,13,22,17.10
2015,05,19,13,23,17.20
2015,05,19,13,24,17.20
2015,05,19,13,25,17.30
2015,05,19,13,26,17.30
2015,05,19,13,27,17.20
2015,05,19,13,28,17.10
2015,05,19,13,29,17.10
2015,05,19,13,30,17.10
2015,05,19,13,31,17.00
2015,05,19,13,32,17.00
2015,05,19,13,33,17.00
2015,05,19,13,34,17.10
2015,05,19,13,35,17.10
2015,05,19,13,36,17.20
2015,05,19,13,37,17.10
2015,05,19,13,38,17.10
2015,05,19,13,39,17.10
2015,05,19,13,40,17.20
2015,05,19,13,41,17.30
2015,05,19,13,42,17.40
2015,05,19,13,43,17.50
2015,05,19,13,44,17.60
2015,05,19,13,45,17.70
2015,05,19,13,46,17.80
2015,05,19,13,47,17.80
2015,05,19,13,48,17.80
2015,05,19,13,49,17.80
2015,05,19,13,50,17.70
2015,05,19,13,51,17.70
2015,05,19,13,52,17.80
2015,05,19,13,53,17.90
2015,05,19,13,54,18.00
2015,05,19,13,55,18.10
2015,05,19,13,56,18.20
2015,05,19,13,57,18.30
2015,05,19,13,58,18.50
2015,05,19,13,59,18.50
2015,05,19,14,00,18.60
2015,05,19,14,01,18.70
2015,05,19,14,02,18.80
2015,05,19,14,03,18.90
2015,05,19,14,04,18.90
2015,05,19,14,05,18.90
2015,05,19,14,06,18.90
2015,05,19,14,07,19.00
2015,05,19,14,08,19.10
2015,05,19,14,09,19.10
2015,05,19,14,10,19.30
2015,05,19,14,11,19.40
2015,05,19,14,12,19.40
2015,05,19,14,13,19.50
2015,05,19,14,14,19.50
2015,05,19,14,15,19.60
2015,05,19,14,16,19.50
2015,05,19,14,17,19.40
2015,05,19,14,18,19.30
2015,05,19,14,19,19.30
2015,05,19,14,20,19.30
2015,05,19,14,21,19.20
2015,05,19,14,22,19.20
2015,05,19,14,23,19.20
2015,05,19,14,24,19.20
2015,05,19,14,25,19.30
2015,05,19,14,26,19.20
2015,05,19,14,27,19.30
2015,05,19,14,28,19.40
2015,05,19,14,29,19.50
2015,05,19,14,30,19.50
2015,05,19,14,31,19.50
2015,05,19,14,32,19.50
2015,05,19,14,33,19.50
2015,05,19,14,34,19.40
2015,05,19,14,35,19.20
2015,05,19,14,36,19.30
2015,05,19,14,37,19.30
2015,05,19,14,38,19.30
2015,05,19,14,39,19.30
2015,05,19,14,40,19.40
2015,05,19,14,41,19.60
2015,05,19,14,42,19.80
2015,05,19,14,43,19.90
2015,05,19,14,44,19.90
2015,05,19,14,45,19.90
2015,05,19,14,46,20.00
2015,05,19,14,47,20.10
2015,05,19,14,48,19.90
2015,05,19,14,49,19.90
2015,05,19,14,50,19.90
2015,05,19,14,51,19.90
2015,05,19,14,52,19.80
2015,05,19,14,53,19.70
2015,05,19,14,54,19.70
2015,05,19,14,55,19.70
2015,05,19,14,56,19.60
2015,05,19,14,57,19.50
2015,05,19,14,58,19.50
2015,05,19,14,59,19.50
2015,05,19,15,00,19.60
2015,05,19,15,01,19.70
2015,05,19,15,02,19.60
2015,05,19,15,03,19.70
2015,05,19,15,04,19.90
2015,05,19,15,05,19.90
2015,05,19,15,06,19.90
2015,05,19,15,07,19.90
2015,05,19,15,08,20.00
2015,05,19,15,09,20.10
2015,05,19,15,10,20.20
2015,05,19,15,11,20.40
2015,05,19,15,12,20.50
2015,05,19,15,13,20.60
2015,05,19,15,14,20.60
2015,05,19,15,15,20.70
2015,05,19,15,16,20.80
2015,05,19,15,17,20.90
2015,05,19,15,18,21.00
2015,05,19,15,19,21.10
2015,05,19,15,20,21.10
2015,05,19,15,21,21.10
2015,05,19,15,22,21.00
2015,05,19,15,23,20.80
2015,05,19,15,24,20.80
2015,05,19,15,25,20.70
2015,05,19,15,26,20.60
2015,05,19,15,27,20.40
2015,05,19,15,28,20.30
2015,05,19,15,29,20.20
2015,05,19,15,30,20.20
2015,05,19,15,31,20.20
2015,05,19,15,32,20.20
2015,05,19,15,33,20.20
2015,05,19,15,34,20.20
2015,05,19,15,35,20.20
2015,05,19,15,36,20.20
2015,05,19,15,37,20.10
2015,05,19,15,38,20.00
2015,05,19,15,39,19.90
2015,05,19,15,40,19.80
2015,05,19,15,41,19.80
2015,05,19,15,42,19.60
2015,05,19,15,43,19.50
2015,05,19,15,44,19.40
2015,05,19,15,45,19.20
2015,05,19,15,46,19.00
2015,05,19,15,47,18.90
2015,05,19,15,48,18.70
2015,05,19,15,49,18.60
2015,05,19,15,50,18.60
2015,05,19,15,51,18.50
2015,05,19,15,52,18.40
2015,05,19,15,53,18.40
2015,05,19,15,54,18.20
2015,05,19,15,55,18.20
2015,05,19,15,56,18.20
2015,05,19,15,57,18.20
2015,05,19,15,58,18.20
2015,05,19,15,59,18.20
2015,05,19,16,00,18.20
2015,05,19,16,01,18.20
2015,05,19,16,02,18.30
2015,05,19,16,03,18.30
2015,05,19,16,04,18.30
2015,05,19,16,05,18.40
2015,05,19,16,06,18.40
2015,05,19,16,07,18.40
2015,05,19,16,08,18.40
2015,05,19,16,09,18.40
2015,05,19,16,10,18.50
2015,05,19,16,11,18.50
2015,05,19,16,12,18.50
2015,05,19,16,13,18.50
2015,05,19,16,14,18.60
2015,05,19,16,15,18.70
2015,05,19,16,16,18.70
2015,05,19,16,17,18.70
2015,05,19,16,18,18.80
2015,05,19,16,19,18.80
2015,05,19,16,20,18.70
2015,05,19,16,21,18.70
2015,05,19,16,22,18.70
2015,05,19,16,23,18.60
2015,05,19,16,24,18.60
2015,05,19,16,25,18.60
2015,05,19,16,26,18.60
2015,05,19,16,27,18.60
2015,05,19,16,28,18.60
2015,05,19,16,29,18.60
2015,05,19,16,30,18.70
2015,05,19,16,31,18.80
2015,05,19,16,32,18.80
2015,05,19,16,33,18.80
2015,05,19,16,34,18.80
2015,05,19,16,35,18.80
2015,05,19,16,36,18.80
2015,05,19,16,37,18.80
2015,05,19,16,38,18.90
2015,05,19,16,39,18.90
2015,05,19,16,40,18.90
2015,05,19,16,41,18.90
2015,05,19,16,42,18.80
2015,05,19,16,43,18.80
2015,05,19,16,44,18.80
2015,05,19,16,45,18.70
2015,05,19,16,46,18.80
2015,05,19,16,47,18.80
2015,05,19,16,48,18.80
2015,05,19,16,49,18.80
2015,05,19,16,50,18.80
2015,05,19,16,51,18.80
2015,05,19,16,52,18.80
2015,05,19,16,53,18.90
2015,05,19,16,54,19.00
2015,05,19,16,55,19.10
2015,05,19,16,56,19.10
2015,05,19,16,57,19.30
2015,05,19,16,58,19.40
2015,05,19,16,59,19.40
2015,05,19,17,00,19.40
2015,05,19,17,01,19.40
2015,05,19,17,02,19.40
2015,05,19,17,03,19.40
2015,05,19,17,04,19.40
2015,05,19,17,05,19.30
2015,05,19,17,06,19.20
2015,05,19,17,07,19.10
2015,05,19,17,08,18.90
2015,05,19,17,09,18.80
2015,05,19,17,10,18.60
2015,05,19,17,11,18.60
2015,05,19,17,12,18.50
2015,05,19,17,13,18.50
2015,05,19,17,14,18.50
2015,05,19,17,15,18.40
2015,05,19,17,16,18.50
2015,05,19,17,17,18.50
2015,05,19,17,18,18.50
2015,05,19,17,19,18.50